Regional Weather Roundup
Issued by NWS Portland, ME

Home | Current Version | Previous Version | Text Only | Print | Product List | Glossary On
Versions: 1 2 3 4 5 6 7 8 9 10 11 12 13 14 15 16 17 18 19 20 21 22 23 24 25 26 27 28 29 30 31 32 33 34 35 36 37 38 39 40 41 42 43 44 45 46 47 48 49 50
000
ASUS41 KGYX 291510
RWRGYX
WEATHER ROUNDUP FOR MAINE AND NEW HAMPSHIRE
NATIONAL WEATHER SERVICE GRAY ME
1100 AM EDT THU JUN 29 2017

MEZ002-005-006-010-012-015-018-020-021-024-026-027-029-291600-
MAINE

CITY           SKY/WX    TMP DP  RH WIND       PRES   REMARKS
PORTLAND       CLOUDY    70  57  63 SW5       30.08F
SANFORD        CLOUDY    71  58  63 SW8       30.10R
BAR HARBOR     SUNNY     72  55  55 S8        30.07F
WISCASSET      MOSUNNY   72  59  63 VRB5      30.08F
ROCKLAND       MOSUNNY   69  59  70 S10       30.07S
FRYEBURG       CLOUDY    66  59  78 CALM      30.08F
LEWISTONAUBURN CLOUDY    69  58  67 SW5       30.07F
AUGUSTA        MOSUNNY   73  52  47 VRB5      30.07F
WATERVILLE     SUNNY     73  56  54 W8        30.04F
BANGOR         MOSUNNY   72  54  53 CALM      30.06F
GREENVILLE       N/A     61  53  75 CALM      30.05F
MILLINOCKET    LGT RAIN  63  57  81 VRB3      30.06F
HOULTON        CLOUDY    62  55  77 W7        30.03S
PRESQUE ISLE   PTSUNNY   63  56  78 VRB7      30.02F
FRENCHVILLE    MOSUNNY   63  54  72 VRB6      29.99S
CARIBOU        PTSUNNY   65  56  72 VRB6      30.00F
$$

NHZ002-005-008-009-011-012-014-291600-
NEW HAMPSHIRE

CITY           SKY/WX    TMP DP  RH WIND       PRES   REMARKS
PORTSMOUTH     CLOUDY    74  56  53 SW9       30.09R
ROCHESTER      CLOUDY    72  57  59 VRB3      30.10R
NASHUA         CLOUDY    74  60  61 SW3       30.11S
MANCHESTER     CLOUDY    73  54  51 CALM      30.09F
CONCORD        CLOUDY    68  57  68 W5        30.11S
LACONIA        CLOUDY   N/A N/A N/A SW12      30.10F
PLYMOUTH       FAIR      64  55  71 CALM      30.09F
BERLIN         CLOUDY    72  49  44 VRB5      30.07F
WHITEFIELD     MOSUNNY   69  57  65 NW5       30.07F
JAFFREY        CLOUDY    70  55  59 SW6       30.13F
KEENE          CLOUDY    68  57  68 SW5       30.12S
LEBANON        CLOUDY    67  56  67 S6        30.08F
MT WASHINGTON  FOG       43  43 100 W35         N/A  VSB 1/16
$$

VTZ005-007-008-291600-
VERMONT

CITY           SKY/WX    TMP DP  RH WIND       PRES   REMARKS
ST JOHNSBURY     N/A     64  57  78 MISG      30.06F
MONTPELIER     CLOUDY    63  59  87 NW3       30.12R
BURLINGTON     CLOUDY    68  56  65 S9        30.05S
$$

MAZ007-012-024-CTZ003-RIZ002-NYZ038-NYZ072-291600-
SOUTHERN NEW ENGLAND AND NY

CITY           SKY/WX    TMP DP  RH WIND       PRES   REMARKS
BOSTON         CLOUDY    76  55  48 SW13      30.11F
WORCESTER      CLOUDY    72  52  49 SW9       30.15R
NANTUCKET      CLOUDY    67  62  84 SW14      30.17S
PROVIDENCE     PTSUNNY   75  61  61 SW10      30.14F
HARTFORD       CLOUDY    71  57  61 S7        30.12F
ALBANY         CLOUDY    68  54  60 SE8       30.07F
NEW YORK CITY  CLOUDY    79  59  50 SW15G22   30.12S
$$

ANZ081-ANZ082-ANZ150-NHZ014-MEZ023>029-291600-
COASTAL MARINE OBSERVATIONS

STATION/POSITION TIME  TEMP    WIND        PRES    WAVE
                       AIR SEA DIR/SP/G            HT/PER
                 (UTC) (F)     (DEG/KT/KT) (MB)    (FT/S)
MATINICUS ROCK   1400   58     230/  7/  7 1018.6F
ISLE OF SHOALS   1400   63     210/  2/  3 1019.0F
JEFFREYS LEDGE   1406      57                N/A     1/ 7
CASHES LEDGE BUO 1350   65 62              1019.7    2/ 4
GEORGES BANK BUO 1350   56 54              1022.0    2/ 8
$$

.............KEY..............
   WCI - WIND CHILL
   TC  - TEMPERATURE IN CELSIUS
   VSB - VISIBILITY IN MILES
   HX  - HEAT INDEX
   FAIR- INDICATES FEW OR NO CLOUDS BELOW 12,000 FT, WITH NO
         SIGNIFICANT WEATHER AND/OR OBSTRUCTIONS TO VISIBILITY.





USA.gov is the U.S. government's official web portal to all federal, state and local government web resources and services.